Location: Fundy National Park
(45.6138°N, 65.0316°W)
Time: 18:59:57
(UTC-04:00)

BlueWalker 3 - Pass Details

Date: 03 December 2022
Orbit: 499 x 517 km, 53.2° (Epoch: 04 February)

Event Time Altitude Azimuth Distance (km) Brightness Sun altitude
Rises 18:06:24 0° 292° (WNW) 2,628 6.4 -15.0°
Reaches altitude 10° 18:08:51 10° 305° (NW) 1,737 5.2 -15.5°
Maximum altitude 18:12:14 27° 5° (N) 1,018 3.3 -16.0°
Enters shadow 18:13:13 24° 30° (NNE) 1,096 3.2 -16.2°
